Waarnemingen

Advertentie
Mijn weer
Deauville, Frankrijk (7031): temperatuur & dauwpunt: 17.09.2019 13:00:00 - 23.09.2019 13:00:00 (CEST)Deauville, Frankrijk (7031): temperatuur 5cm: 17.09.2019 13:00:00 - 23.09.2019 13:00:00 (CEST)Deauville, Frankrijk (7031): windsnelheid & windstoten: 17.09.2019 13:00:00 - 23.09.2019 13:00:00 (CEST)Deauville, Frankrijk (7031): windrichting: 17.09.2019 13:00:00 - 23.09.2019 13:00:00 (CEST)Deauville, Frankrijk (7031): luchtdruk: 17.09.2019 13:00:00 - 23.09.2019 13:00:00 (CEST)Deauville, Frankrijk (7031): zicht: 17.09.2019 13:00:00 - 23.09.2019 13:00:00 (CEST)Deauville, Frankrijk (7031): neerslag: 17.09.2019 13:00:00 - 23.09.2019 13:00:00 (CEST)
Datum & Tijd tt [°C] td [°C] tt 5cm [°C] ff [km/u] ff [kn] fx [km/u] fx [kn] dd ppp [hPa] vv [km] rr [mm]
23.09.2019 13:00:00 18,3 11,6 18,5 34 18 54 29 Z 1014,7 20 0,0
23.09.2019 12:00:00 16,6 12,7 18,1 16 9 40 21 Z 1015,4 50 0,0
23.09.2019 11:00:00 15,5 11,9 17,0 21 12 35 19 Z 1015,4 52 0,0
23.09.2019 10:00:00 14,0 11,7 13,2 20 11 32 18 Z 1015,5 20 0,0
23.09.2019 09:00:00 12,6 11,3 11,0 15 8 25 14 ZZW 1015,1 20 0,0
23.09.2019 08:00:00 11,8 11,0 10,9 16 9 27 14 ZZW 1014,7 41 0,0
23.09.2019 07:00:00 12,1 11,2 11,1 14 8 26 14 ZW 1014,3 48 0,0
23.09.2019 06:00:00 13,0 12,1 11,3 16 9 23 13 ZW 1013,8 53 0,0
23.09.2019 05:00:00 12,5 11,6 11,3 12 6 24 13 ZW 1013,7 60 0,0
23.09.2019 04:00:00 13,4 12,1 12,4 16 9 27 15 ZW 1012,8 60 0,2
23.09.2019 03:00:00 13,7 12,4 12,9 15 8 23 12 ZW 1012,4 60 0,0
23.09.2019 02:00:00 14,0 12,2 12,9 14 8 29 16 ZZW 1011,7 30 0,0
23.09.2019 01:00:00 13,7 11,6 12,6 14 8 26 14 ZZW 1011,3 60 0,0
23.09.2019 00:00:00 14,0 11,3 12,6 17 9 29 16 ZZW 1010,5 60 0,0
22.09.2019 23:00:00 14,1 11,4 12,5 13 7 22 12 Z 1009,7 60 0,0
22.09.2019 22:00:00 15,2 11,8 13,7 14 8 26 14 ZZW 1009,2 60 0,0
22.09.2019 21:00:00 16,2 12,4 14,5 13 7 23 12 ZZW 1008,6 60 0,0
22.09.2019 20:00:00 16,0 12,0 14,8 10 6 29 16 Z 1008,0 60 0,0
22.09.2019 19:00:00 17,8 13,1 16,7 23 12 52 28 ZZW 1007,6 26 0,0
22.09.2019 18:00:00 20,0 11,0 18,7 18 10 33 18 ZW 1006,8 60 0,0
22.09.2019 17:00:00 20,3 11,8 21,6 19 10 36 20 ZZW 1006,8 54 0,0
22.09.2019 16:00:00 19,6 13,5 18,9 22 12 44 24 Z 1006,7 35 0,0
22.09.2019 15:00:00 17,8 13,3 18,7 19 10 33 18 ZZW 1007,0 60 0,0
22.09.2019 14:00:00 17,8 13,3 18,3 19 10 32 18 ZZW 1006,8 56 0,0
22.09.2019 13:00:00 17,3 13,4 16,7 22 12 41 22 ZZW 1007,0 48 0,0
22.09.2019 12:00:00 16,2 13,7 14,8 18 10 29 16 ZW 1006,6 50 0,0
22.09.2019 11:00:00 17,7 12,4 17,3 13 7 46 25 WZW 1006,1 56 0,0
22.09.2019 10:00:00 19,1 15,2 19,0 24 13 46 25 ZZW 1005,4 48 0,0
22.09.2019 09:00:00 19,1 15,0 18,1 17 9 33 18 Z 1004,4 35 0,0
22.09.2019 08:00:00 18,8 14,9 18,1 18 10 35 19 Z 1004,4 60 0,0
22.09.2019 07:00:00 19,5 15,2 18,4 19 10 32 17 Z 1004,4 60 0,0
22.09.2019 06:00:00 19,6 14,8 18,8 16 8 29 16 ZZO 1004,6 60 0,0
22.09.2019 05:00:00 20,5 14,8 19,6 14 8 24 13 Z 1005,1 60 0,0
22.09.2019 04:00:00 20,8 14,7 19,0 14 8 29 15 Z 1005,3 60 0,0
22.09.2019 03:00:00 20,1 13,8 18,6 13 7 24 13 Z 1005,8 60 0,0
22.09.2019 02:00:00 20,8 13,5 19,9 14 8 39 21 Z 1005,8 60 0,0
22.09.2019 01:00:00 22,1 13,2 19,6 10 5 24 13 ZO 1006,1 60 0,0
22.09.2019 00:00:00 21,8 13,4 19,8 6 3 21 12 ZO 1006,5 60 0,0
21.09.2019 23:00:00 22,2 13,8 20,0 6 3 19 10 ZO 1006,9 60 0,0
21.09.2019 22:00:00 23,0 14,3 20,9 6 4 18 10 ZO 1007,4 60 0,0
21.09.2019 21:00:00 22,8 14,4 19,5 5 3 15 8 ZO 1007,8 60 0,0
21.09.2019 20:00:00 23,0 14,3 20,6 6 4 22 12 ZO 1007,6 17 0,0
21.09.2019 19:00:00 25,3 14,4 25,3 10 5 29 16 ZZO 1007,8 60 0,0
21.09.2019 18:00:00 27,2 14,6 31,2 16 9 32 18 ZZO 1007,9 46 0,0
21.09.2019 17:00:00 27,8 14,8 27,8 18 10 37 20 Z 1008,5 60 0,0
21.09.2019 16:00:00 27,1 14,5 28,4 18 10 40 21 ZZO 1009,2 28 0,0
21.09.2019 15:00:00 27,1 14,5 31,8 15 8 41 22 ZO 1009,5 42 0,0
21.09.2019 14:00:00 25,8 14,0 28,8 15 8 35 19 OZO 1010,2 49 0,0
21.09.2019 13:00:00 23,7 12,3 26,5 13 7 32 17 OZO 1011,3 48 0,0
21.09.2019 12:00:00 21,2 10,9 24,7 11 6 29 16 OZO 1011,8 50 0,0
21.09.2019 11:00:00 18,6 8,8 19,7 7 4 25 13 ZO 1012,8 60 0,0
21.09.2019 10:00:00 15,6 6,0 14,5 10 5 29 15 OZO 1013,4 60 0,0
21.09.2019 09:00:00 13,5 3,8 12,1 11 6 34 19 ZO 1013,5 33 0,0
21.09.2019 08:00:00 12,9 2,7 11,6 9 5 34 18 ZO 1013,8 60 0,0
21.09.2019 07:00:00 13,1 2,0 11,7 12 7 37 20 ZO 1013,9 60 0,0
21.09.2019 06:00:00 13,2 1,8 11,8 11 6 29 16 OZO 1014,2 60 0,0
21.09.2019 05:00:00 13,8 1,1 12,4 11 6 32 18 OZO 1014,5 60 0,0
21.09.2019 04:00:00 14,4 1,0 13,1 13 7 35 19 OZO 1014,9 60 0,0
21.09.2019 03:00:00 15,3 0,7 13,1 13 7 35 19 OZO 1015,5 60 0,0
21.09.2019 02:00:00 14,8 0,6 12,6 14 8 32 18 OZO 1016,0 60 0,0
21.09.2019 01:00:00 14,9 0,7 13,1 15 8 37 20 OZO 1016,6 60 0,0
21.09.2019 00:00:00 15,1 1,2 12,7 18 10 36 20 O 1017,0 60 0,0
20.09.2019 23:00:00 15,0 1,5 11,0 15 8 26 14 OZO 1017,7 60 0,0
20.09.2019 22:00:00 15,9 1,2 12,8 12 6 24 13 O 1018,0 60 0,0
20.09.2019 21:00:00 17,1 1,5 14,3 12 7 25 13 O 1018,2 60 0,0
20.09.2019 20:00:00 19,0 0,5 17,1 14 7 31 17 O 1018,2 60 0,0
20.09.2019 19:00:00 21,3 -0,1 23,4 17 9 41 22 O 1018,3 37 0,0
20.09.2019 18:00:00 22,2 0,1 26,5 20 11 44 24 O 1018,6 46 0,0
20.09.2019 17:00:00 22,4 0,2 27,7 19 10 41 22 O 1019,2 40 0,0
20.09.2019 16:00:00 22,2 0,1 27,7 19 10 46 25 O 1020,3 35 0,0
20.09.2019 15:00:00 21,8 0,9 26,7 16 9 44 24 O 1021,1 32 0,0
20.09.2019 14:00:00 20,7 -1,2 23,2 23 12 55 30 O 1021,9 32 0,0
20.09.2019 13:00:00 19,2 2,1 21,9 19 10 45 24 O 1022,8 36 0,0
20.09.2019 12:00:00 17,2 3,5 19,3 23 12 46 25 O 1023,7 41 0,0
20.09.2019 11:00:00 15,1 4,5 15,2 17 9 37 20 O 1024,7 45 0,0
20.09.2019 10:00:00 12,6 4,3 10,9 19 10 38 20 O 1025,3 36 0,0
20.09.2019 09:00:00 10,3 4,4 7,3 18 10 29 16 O 1025,3 39 0,0
20.09.2019 08:00:00 8,6 4,4 6,8 12 6 24 13 ONO 1025,7 59 0,0
20.09.2019 07:00:00 8,9 4,7 6,7 12 6 24 13 O 1025,6 60 0,0
20.09.2019 06:00:00 9,0 5,2 6,5 11 6 22 12 ONO 1026,1 60 0,0
20.09.2019 05:00:00 9,2 5,6 6,8 9 5 21 12 ONO 1026,7 60 0,0
20.09.2019 04:00:00 9,8 6,0 7,6 9 5 19 11 ONO 1027,1 60 0,0
20.09.2019 03:00:00 10,6 6,3 8,7 11 6 22 12 ONO 1027,2 60 0,0
20.09.2019 02:00:00 11,4 6,5 9,4 11 6 24 13 ONO 1027,7 60 0,0
20.09.2019 01:00:00 12,2 6,7 10,4 12 6 29 16 ONO 1027,9 60 0,0
20.09.2019 00:00:00 13,1 6,9 11,3 13 7 25 14 O 1028,4 60 0,0
19.09.2019 23:00:00 13,8 7,1 11,7 12 7 30 16 ONO 1028,4 60 0,0
19.09.2019 22:00:00 13,6 8,2 11,6 9 5 23 12 NO 1028,2 60 0,0
19.09.2019 21:00:00 14,5 10,1 12,8 9 5 26 14 NO 1028,0 57 0,0
19.09.2019 20:00:00 15,9 10,0 15,1 16 9 32 18 NNO 1027,7 60 0,0
19.09.2019 19:00:00 18,2 6,7 20,7 12 7 35 19 NO 1027,5 39 0,0
19.09.2019 18:00:00 19,0 6,8 23,1 15 8 40 22 NO 1027,5 37 0,0
19.09.2019 17:00:00 19,2 6,6 24,6 16 9 40 22 ONO 1027,6 49 0,0
19.09.2019 16:00:00 18,9 6,7 23,5 19 10 41 22 ONO 1028,3 37 0,0
19.09.2019 15:00:00 18,7 6,8 23,6 17 9 36 20 ONO 1028,8 35 0,0
19.09.2019 14:00:00 18,3 7,4 20,8 18 10 42 23 NO 1029,4 37 0,0
19.09.2019 13:00:00 17,5 7,2 20,5 21 11 40 22 ONO 1029,9 42 0,0
19.09.2019 12:00:00 16,1 6,8 18,9 19 10 42 23 ONO 1030,4 47 0,0
19.09.2019 11:00:00 14,5 6,8 15,8 18 10 36 20 ONO 1030,5 54 0,0
19.09.2019 10:00:00 12,7 6,9 11,9 16 9 34 18 ONO 1030,4 60 0,0
19.09.2019 09:00:00 10,8 6,9 7,2 11 6 26 14 ONO 1029,9 58 0,0
19.09.2019 08:00:00 8,7 6,7 5,6 8 4 18 10 ONO 1029,6 60 0,0
19.09.2019 07:00:00 8,6 6,4 6,0 6 4 19 10 ONO 1029,3 60 0,0
19.09.2019 06:00:00 9,0 6,8 6,0 8 4 18 10 ONO 1029,4 59 0,0
19.09.2019 05:00:00 9,1 6,5 6,7 6 3 16 9 NO 1029,3 60 0,0
19.09.2019 04:00:00 9,6 6,7 6,9 6 3 19 10 NO 1029,3 60 0,0
19.09.2019 03:00:00 10,4 6,9 8,6 9 5 25 14 NO 1029,6 59 0,0
19.09.2019 02:00:00 11,0 6,9 9,1 9 5 27 15 NO 1029,4 60 0,0
19.09.2019 01:00:00 11,7 7,2 10,1 11 6 29 16 NO 1029,4 60 0,0
19.09.2019 00:00:00 12,3 7,4 11,0 14 8 32 17 NO 1029,1 60 0,0
18.09.2019 23:00:00 12,9 8,0 11,6 16 9 35 19 NO 1028,6 60 0,0
18.09.2019 22:00:00 13,3 8,8 12,1 15 8 38 21 NO 1028,4 60 0,0
18.09.2019 21:00:00 13,8 9,2 12,8 18 10 36 19 NNO 1027,8 58 0,0
18.09.2019 20:00:00 14,7 9,5 14,0 18 10 41 22 NNO 1027,2 54 0,0
18.09.2019 19:00:00 16,1 9,5 17,8 18 10 37 20 NNO 1026,9 39 0,0
18.09.2019 18:00:00 17,4 8,3 20,6 23 12 41 22 NNO 1026,7 57 0,0
18.09.2019 17:00:00 18,3 8,3 22,6 20 11 40 22 NNO 1026,5 57 0,0
18.09.2019 16:00:00 18,0 7,4 23,2 19 11 38 21 NNO 1026,9 49 0,0
18.09.2019 15:00:00 18,4 7,5 22,3 19 10 40 22 NO 1027,0 20 0,0
18.09.2019 14:00:00 17,5 7,2 19,6 16 8 42 23 NO 1027,4 56 0,0
18.09.2019 13:00:00 16,5 7,2 20,3 19 11 40 22 ONO 1027,9 20 0,0
18.09.2019 12:00:00 15,7 6,7 18,5 17 9 37 20 ONO 1028,2 39 0,0
18.09.2019 11:00:00 14,4 7,2 15,5 19 11 37 20 ONO 1028,1 48 0,0
18.09.2019 10:00:00 12,9 6,7 11,4 14 8 27 15 ONO 1028,2 46 0,0
18.09.2019 09:00:00 10,7 6,8 5,7 8 5 21 11 NO 1027,7 51 0,0
18.09.2019 08:00:00 8,2 6,0 5,2 6 4 18 10 NO 1027,3 50 0,0
18.09.2019 07:00:00 8,8 6,2 6,2 7 4 19 10 NO 1027,0 50 0,0
18.09.2019 06:00:00 9,1 6,4 6,4 7 4 18 10 NO 1026,7 55 0,0
18.09.2019 05:00:00 10,0 6,5 7,7 9 5 20 11 ONO 1026,6 57 0,0
18.09.2019 04:00:00 10,5 6,8 8,6 9 5 31 17 NO 1026,6 59 0,0
18.09.2019 03:00:00 11,0 7,1 9,5 12 7 32 17 NO 1026,4 60 0,0
18.09.2019 02:00:00 11,5 7,4 10,1 13 7 36 19 NO 1026,2 60 0,0
18.09.2019 01:00:00 11,8 7,9 10,4 14 7 32 18 ONO 1025,9 60 0,0
18.09.2019 00:00:00 12,3 8,2 10,8 13 7 31 17 NO 1025,7 60 0,0
17.09.2019 23:00:00 13,0 9,3 11,4 13 7 30 16 NO 1025,2 60 0,0
17.09.2019 22:00:00 13,1 9,9 11,5 10 5 29 15 NO 1024,9 60 0,0
17.09.2019 21:00:00 13,6 10,4 12,0 10 5 29 15 NO 1024,6 48 0,0
17.09.2019 20:00:00 14,8 10,6 14,2 16 9 30 16 NNO 1024,0 41 0,0
17.09.2019 19:00:00 16,7 10,8 18,9 16 9 36 20 NNO 1023,7 48 0,0
17.09.2019 18:00:00 18,3 11,1 22,4 17 9 27 15 NNO 1023,4 54 0,0
17.09.2019 17:00:00 19,0 10,5 23,5 16 9 29 16 NNO 1023,5 20 0,0
17.09.2019 16:00:00 19,5 11,5 24,7 18 10 31 17 N 1023,5 38 0,0
17.09.2019 15:00:00 19,3 12,6 20,6 16 9 32 18 N 1023,5 60 0,0
17.09.2019 14:00:00 19,4 13,1 22,4 13 7 29 16 NNO 1023,6 50 0,0
17.09.2019 13:00:00 18,4 13,9 18,8 15 8 29 16 NNO 1024,0 38 0,0

tt = temperatuur
td = dauwpunt
tt 5cm = temperatuur 5cm
ff = windsnelheid
fx = windstoten
dd = windrichting
ppp = luchtdruk
vv = zicht
rr = neerslag

Weerstations in de omgeving